[[{"header":{"parameterUnit":"m.s-1","parameterCategory":1,"la1":30.2991,"la2":30.254,"lo1":-89.0895,"lo2":-89.0444,"dy":0.0017,"dx":0.0017,"nx":28,"ny":28,"refTime":"2025-01-03T09:00:00:Z","depth":0,"parameterNumber":2,"parameterNumberName":"U-component_of_WINDS"},"data":[0,0,0,0,0,0,0,0,0,0,0,0,0,0,0,0,0,0,0,0,0,0,0,0,0,0,0,0,0,0,0,0,0,0,0,0,0,0,0,0,0,0,0,0,0,0,0,0,0,0,0,0,0,0,0,0,0,0,-1.95,-1.9501,0,-1.96,-1.9601,-1.9602,-1.9669,-1.9669,-1.967,-1.967,-1.9774,-1.9776,-1.9779,0,0,0,0,0,0,0,0,0,0,0,0,0,-1.9369,-1.9371,-1.95,-1.9501,-1.9502,-1.96,-1.9601,-1.9602,-1.9669,-1.9669,-1.967,-1.9671,-1.9773,-1.9776,-1.9779,0,0,0,0,0,0,0,0,0,0,0,0,0,-1.9443,-1.9372,-1.95,-1.9547,-1.9553,-1.9599,-1.9601,-1.9603,-1.9669,-1.9669,-1.967,-1.9671,-1.9773,-1.9776,-1.9779,-1.9787,0,0,-1.979,-1.9792,0,0,0,0,0,0,0,0,-1.9439,-1.9448,-1.9539,-1.9544,-1.955,-1.9623,-1.9593,-1.9665,-1.9669,-1.9625,-1.967,-1.9671,-1.9723,-1.9731,-1.9748,-1.9792,-1.9796,-1.979,-1.9793,-1.9794,-1.9795,0,0,0,0,0,0,0,-1.9434,-1.9444,-1.954,-1.954,-1.9547,-1.9564,-1.9576,-1.9607,-1.9669,-1.9629,-1.9634,-1.9644,-1.9726,-1.9745,-1.9751,-1.9798,-1.979,-1.9793,-1.9796,-1.9797,-1.9854,-1.9854,0,0,0,0,0,0,-1.9421,-1.9439,-1.9536,-1.9542,-1.9495,-1.9566,-1.9579,-1.9599,-1.9669,-1.968,-1.9644,-1.9647,-1.9738,-1.9747,-1.9755,-1.9769,-1.9794,-1.9797,-1.9799,-1.9855,-1.9854,-1.9853,0,0,0,0,0,0,-1.9418,-1.9429,-1.9532,-1.9492,-1.9507,-1.9568,-1.9589,-1.96,-1.9618,-1.968,-1.9692,-1.9651,-1.9739,-1.975,-1.9779,-1.9774,-1.9799,-1.9802,-1.9855,-1.9855,-1.9854,-1.9797,0,0,0,0,0,0,-1.9414,-1.9427,-1.943,-1.9492,-1.9509,-1.9553,-1.9589,-1.9602,-1.9624,-1.963,-1.969,-1.9701,-1.9741,-1.9773,-1.9782,-1.9779,-1.9805,-1.9856,-1.9855,-1.9854,-1.9799,-1.9794,-1.9789,0,0,0,0,0,-1.9409,-1.9411,-1.943,-1.9441,-1.9514,-1.9553,-1.9563,-1.9608,-1.9623,-1.9627,-1.9667,-1.9699,-1.9773,-1.9775,-1.9786,-1.9784,-1.9857,-1.9855,-1.9854,-1.9801,-1.9795,-1.9789,0,0,0,0,0,0,-1.9347,-1.942,-1.9442,-1.9463,-1.9501,-1.9564,-1.957,-1.96,-1.9635,-1.9638,-1.9694,-1.9707,-1.973,-1.976,-1.9762,-1.9796,-1.9819,-1.9819,-1.9775,-1.9769,-1.9764,-1.9756,-1.9808,0,0,0,0,0,-1.9336,-1.9361,-1.9424,-1.9437,-1.9454,-1.9509,-1.9528,-1.956,-1.9601,-1.9618,-1.966,-1.97,-1.9733,-1.9753,-1.9786,-1.9804,-1.9819,-1.9808,-1.9803,-1.9799,-1.9799,-1.9811,-1.9807,-1.9849,-1.9849,-1.9849,0,0,-1.9314,-1.9356,-1.9369,-1.9425,-1.9458,-1.9484,-1.9522,-1.9547,-1.9567,-1.9622,-1.9652,-1.9684,-1.9732,-1.9756,-1.9768,-1.9781,-1.979,-1.9797,-1.9793,-1.9796,-1.9809,-1.9805,-1.9802,-1.9848,-1.9848,-1.9849,0,0,-1.9285,-1.932,-1.9335,-1.9367,-1.9417,-1.9453,-1.9456,-1.9515,-1.9538,-1.9569,-1.961,-1.9635,-1.969,-1.9723,-1.9747,-1.9731,-1.9762,-1.9741,-1.9715,-1.9726,-1.9723,-1.972,-1.9715,-1.9712,-1.9741,-1.974,-1.974,0,-1.9251,-1.929,-1.9339,-1.9361,-1.9385,-1.9436,-1.9452,-1.9481,-1.9539,-1.9555,-1.9569,-1.9639,-1.9675,-1.9707,-1.9703,-1.9721,-1.9727,-1.9734,-1.9719,-1.9717,-1.9715,-1.9711,-1.9709,-1.9738,-1.9738,-1.9738,-1.9738,0,-1.9246,-1.9273,-1.9279,-1.9333,-1.9358,-1.9377,-1.9428,-1.9448,-1.9478,-1.9513,-1.9543,-1.9589,-1.9632,-1.9642,-1.9672,-1.9679,-1.9686,-1.9709,-1.9733,-1.9708,-1.9704,-1.9703,-1.9733,-1.9734,-1.9735,-1.9736,0,0,-1.9181,-1.9262,-1.9263,-1.9288,-1.9347,-1.9369,-1.9391,-1.9433,-1.9449,-1.9487,-1.9508,-1.9553,-1.9575,-1.9602,-1.9636,-1.9646,-1.9631,-1.9668,-1.967,-1.9659,-1.9642,-1.9624,-1.9621,-1.9652,-1.9652,-1.9652,-1.9638,0,-1.9162,-1.9202,-1.9247,-1.9272,-1.9298,-1.9347,-1.9366,-1.9405,-1.9438,-1.9466,-1.9503,-1.9534,-1.9561,-1.9577,-1.959,-1.963,-1.9628,-1.9632,-1.9671,-1.9672,-1.9657,-1.9619,-1.96,-1.9585,-1.9637,-1.9637,-1.9636,0,-1.9144,-1.918,-1.9207,-1.9264,-1.9277,-1.9293,-1.9335,-1.936,-1.9406,-1.9429,-1.946,-1.9496,-1.9522,-1.9544,-1.9581,-1.9583,-1.9602,-1.9624,-1.9625,-1.963,-1.9652,-1.9623,-1.9581,-1.9579,-1.9635,-1.9635,-1.9635,0,-1.9094,-1.9149,-1.9173,-1.9193,-1.926,-1.927,-1.9298,-1.9344,-1.9367,-1.9404,-1.9419,-1.9459,-1.9481,-1.9512,-1.9558,-1.957,-1.9591,-1.9616,-1.9612,-1.9611,-1.9614,-1.9613,-1.9574,-1.9627,-1.9627,-1.9627,-1.9627,0,-1.9067,-1.9082,-1.9151,-1.9165,-1.9184,-1.9236,-1.9253,-1.9286,-1.9326,-1.9349,-1.9394,-1.9415,-1.9475,-1.9503,-1.9539,-1.9565,-1.9575,-1.9595,-1.9605,-1.9591,-1.9588,-1.9604,-1.9606,-1.9626,-1.9626,-1.9626,-1.9626,0,-1.9014,-1.9061,-1.909,-1.915,-1.9166,-1.9177,-1.923,-1.9246,-1.9282,-1.931,-1.932,-1.9377,-1.9413,-1.9462,-1.9513,-1.9537,-1.9558,-1.9573,-1.9542,-1.9548,-1.9541,-1.9541,-1.951,-1.9509,-1.9562,-1.9561,-1.9561,0,-1.8994,-1.9007,-1.9068,-1.9086,-1.9113,-1.9141,-1.9164,-1.9216,-1.9238,-1.929,-1.9301,-1.9339,-1.9373,-1.9427,-1.9474,-1.9513,-1.953,-1.9516,-1.9536,-1.9522,-1.9529,-1.9528,-1.9529,-1.9511,-1.951,-1.951,-1.9509,0,-1.8953,-1.8975,-1.9006,-1.9045,-1.9071,-1.9105,-1.9141,-1.9153,-1.9212,-1.9235,-1.9271,-1.9297,-1.9349,-1.9387,-1.9432,-1.9463,-1.9496,-1.9503,-1.9504,-1.949,-1.9471,-1.9481,-1.9529,-1.9503,-1.9504,-1.9504,-1.9504,-1.9505,-1.8916,-1.8929,-1.8975,-1.9008,-1.904,-1.9072,-1.9091,-1.9129,-1.916,-1.9205,-1.9234,-1.9269,-1.9315,-1.9379,-1.9408,-1.9437,-1.945,-1.9452,-1.9452,-1.9452,-1.9447,-1.9467,-1.9445,-1.9446,-1.9446,-1.9446,-1.9446,0,-1.8877,-1.8909,-1.8939,-1.8987,-1.9013,-1.9041,-1.9083,-1.9103,-1.9132,-1.9172,-1.9204,-1.9246,-1.9283,-1.9333,-1.9374,-1.9387,-1.9403,-1.9396,-1.9395,-1.9402,-1.9433,-1.9427,-1.9382,-1.9382,-1.9382,-1.9382,-1.9382,-1.9382,-1.886,-1.8885,-1.8912,-1.8953,-1.8986,-1.9019,-1.904,-1.9071,-1.9102,-1.9147,-1.9177,-1.9209,-1.9253,-1.9298,-1.9333,-1.9347,-1.936,-1.9348,-1.9367,-1.9394,-1.94,-1.9405,-1.9401,-1.9351,-1.9351,-1.9334,-1.9334,-1.9334]},{"header":{"parameterUnit":"m.s-1","parameterCategory":1,"la1":30.2991,"la2":30.254,"lo1":-89.0895,"lo2":-89.0444,"dy":0.0017,"dx":0.0017,"nx":28,"ny":28,"refTime":"2025-01-03T09:00:00:Z","depth":0,"parameterNumber":3,"parameterNumberName":"V-component_of_WINDS"},"data":[0,0,0,0,0,0,0,0,0,0,0,0,0,0,0,0,0,0,0,0,0,0,0,0,0,0,0,0,0,0,0,0,0,0,0,0,0,0,0,0,0,0,0,0,0,0,0,0,0,0,0,0,0,0,0,0,0,0,4.7254,4.7255,0,4.7377,4.7378,4.738,4.7335,4.7332,4.733,4.7327,4.7458,4.7464,4.747,0,0,0,0,0,0,0,0,0,0,0,0,0,4.6987,4.6992,4.7254,4.7255,4.7257,4.7377,4.7378,4.738,4.7336,4.7332,4.7329,4.7326,4.7456,4.7463,4.747,0,0,0,0,0,0,0,0,0,0,0,0,0,4.7106,4.6994,4.7253,4.7249,4.725,4.7376,4.7378,4.738,4.7336,4.7332,4.7328,4.7324,4.7453,4.7462,4.7471,4.7611,0,0,4.7499,4.7503,0,0,0,0,0,0,0,0,4.7099,4.7116,4.7248,4.7249,4.7251,4.7336,4.7332,4.7458,4.7337,4.7304,4.7327,4.7322,4.7421,4.7433,4.7465,4.7617,4.7623,4.75,4.7505,4.7509,4.7512,0,0,0,0,0,0,0,4.7091,4.711,4.7303,4.725,4.7252,4.7243,4.7255,4.7356,4.7384,4.7306,4.7303,4.7318,4.7421,4.7456,4.7468,4.7625,4.75,4.7508,4.7513,4.7517,4.7901,4.7906,0,0,0,0,0,0,4.7081,4.7103,4.7299,4.7306,4.7163,4.7251,4.7265,4.7313,4.7383,4.739,4.7322,4.7316,4.7443,4.7457,4.7472,4.7642,4.7509,4.7518,4.7523,4.7896,4.7902,4.7907,0,0,0,0,0,0,4.7076,4.7099,4.7294,4.7204,4.7228,4.726,4.7315,4.7318,4.7353,4.7395,4.74,4.7352,4.744,4.7459,4.7577,4.7646,4.7522,4.753,4.7891,4.7898,4.7905,4.7981,0,0,0,0,0,0,4.7068,4.7097,4.7149,4.7206,4.7233,4.7395,4.7319,4.7323,4.7368,4.7361,4.7425,4.7431,4.7438,4.7564,4.7586,4.7656,4.7537,4.7885,4.7894,4.7902,4.7973,4.799,4.8005,0,0,0,0,0,4.7059,4.7166,4.7152,4.7175,4.7298,4.7399,4.7415,4.7419,4.7374,4.7427,4.7455,4.7429,4.7635,4.7576,4.7601,4.7675,4.788,4.7891,4.7902,4.7965,4.7987,4.8004,0,0,0,0,0,0,4.7117,4.7173,4.7158,4.7286,4.7338,4.7391,4.7458,4.7441,4.7508,4.7499,4.7504,4.7518,4.764,4.7669,4.7603,4.7815,4.7751,4.7767,4.7791,4.7812,4.7827,4.7817,4.7545,0,0,0,0,0,4.7145,4.722,4.7266,4.7374,4.7401,4.7426,4.7469,4.7469,4.7523,4.7545,4.7581,4.7636,4.7714,4.7764,4.7838,4.7977,4.7992,4.8041,4.8057,4.807,4.8083,4.8162,4.8185,4.7942,4.7942,4.7942,0,0,4.7203,4.7243,4.729,4.7387,4.7427,4.7507,4.7444,4.7531,4.7591,4.7559,4.7672,4.7701,4.7763,4.7893,4.7952,4.7921,4.8154,4.8083,4.8093,4.81,4.8175,4.8198,4.8219,4.795,4.7948,4.7947,0,0,4.7349,4.7386,4.7482,4.7524,4.7585,4.7601,4.7624,4.7681,4.7698,4.7812,4.779,4.7863,4.7996,4.8042,4.8082,4.825,4.823,4.8275,4.8358,4.8435,4.8454,4.8471,4.8532,4.8554,4.8288,4.8289,4.8289,0,4.7414,4.7531,4.7533,4.7623,4.7667,4.7642,4.774,4.7781,4.7864,4.7897,4.7861,4.8028,4.8068,4.821,4.8251,4.8285,4.8313,4.8266,4.8451,4.8468,4.8484,4.8542,4.8565,4.8293,4.8293,4.8292,4.8292,0,4.7608,4.7691,4.7761,4.7841,4.7894,4.7987,4.8006,4.806,4.8056,4.8076,4.8195,4.8242,4.8326,4.836,4.8357,4.8502,4.8481,4.8448,4.8384,4.8512,4.8567,4.8589,4.8301,4.8299,4.8297,4.8296,0,0,4.7792,4.7874,4.79,4.7937,4.8004,4.8069,4.8163,4.8244,4.8291,4.835,4.843,4.8545,4.8515,4.8562,4.8564,4.8632,4.8764,4.8591,4.8593,4.8622,4.8929,4.8953,4.8979,4.8752,4.8756,4.8759,4.8924,0,4.7944,4.8107,4.8113,4.8262,4.834,4.8319,4.8401,4.8453,4.8476,4.8547,4.8573,4.8655,4.8609,4.8637,4.8703,4.8734,4.8826,4.8722,4.8828,4.8832,4.8812,4.9008,4.9033,4.9186,4.8946,4.8949,4.8952,0,4.8142,4.8207,4.8364,4.8423,4.8456,4.8529,4.8605,4.8673,4.8733,4.8745,4.8798,4.8792,4.8891,4.8825,4.8963,4.8892,4.8937,4.8959,4.8965,4.8975,4.8899,4.9023,4.9235,4.9258,4.8986,4.8983,4.8981,0,4.8262,4.8389,4.8499,4.8532,4.8603,4.8655,4.8688,4.8743,4.8792,4.886,4.8893,4.8971,4.9015,4.9077,4.9094,4.9043,4.9233,4.9167,4.9247,4.9247,4.9287,4.9284,4.951,4.9316,4.9316,4.9316,4.9315,0,4.8431,4.8528,4.8554,4.8622,4.8731,4.874,4.8848,4.8878,4.8928,4.9003,4.8991,4.9063,4.908,4.9156,4.917,4.9283,4.9303,4.9317,4.932,4.9319,4.9317,4.9347,4.9337,4.9322,4.932,4.9319,4.9318,0,4.8582,4.8603,4.8722,4.8781,4.8798,4.8876,4.8927,4.8994,4.9016,4.9112,4.9135,4.9171,4.926,4.9283,4.9389,4.9399,4.9533,4.9526,4.9512,4.9512,4.9592,4.9584,4.9844,4.988,4.9663,4.9665,4.9666,0,4.8688,4.8762,4.8828,4.8877,4.8912,4.8991,4.9041,4.9054,4.9107,4.9183,4.9242,4.9329,4.9399,4.9543,4.958,4.9662,4.9657,4.9743,4.9669,4.9666,4.9659,4.9655,4.9663,4.9756,4.9759,4.976,4.9762,0,4.8874,4.8882,4.8954,4.9031,4.9091,4.9152,4.9211,4.9253,4.9274,4.9335,4.9425,4.948,4.9589,4.9677,4.9761,4.9797,4.9785,4.9785,4.9808,4.9807,4.9797,4.9805,4.9551,4.9779,4.9777,4.9776,4.9775,4.9774,4.9007,4.9073,4.913,4.9211,4.9257,4.9313,4.9379,4.941,4.9485,4.9574,4.9578,4.9677,4.9739,4.9849,4.9891,4.997,4.9944,4.9978,4.9986,4.9994,5.0002,4.9784,4.9985,4.9985,4.9984,4.9984,4.9984,0,4.9194,4.923,4.9305,4.9387,4.9453,4.9434,4.9499,4.9555,4.9642,4.97,4.9769,4.9875,4.9961,5.0006,5.0092,5.0147,5.0144,5.0169,5.0165,5.0175,5.0019,4.999,5.0171,5.0171,5.0171,5.0171,5.0171,5.0171,4.9298,4.9409,4.9424,4.9559,4.9595,4.9691,4.973,4.9783,4.9829,4.9947,5.0017,5.0046,5.01,5.019,5.0269,5.028,5.0313,5.0342,5.0351,5.0204,5.0185,5.0167,5.014,5.0349,5.0349,5.05,5.0501,5.0502]}]]